Weather History for KGYL - March, 2013

Change the Weather History Date:

Monday, March 18, 2013

  Actual Average (KHCD) Record (KHCD)
Temperature  
Mean Temperature 20 °F -  
Max Temperature 31 °F 40 °F 79 °F (2012)
Min Temperature 9 °F 23 °F -4 °F (1989)
Degree Days  
Heating Degree Days 45    
Moisture  
Dew Point 16 °F    
Average Humidity 83    
Maximum Humidity 96    
Minimum Humidity 73    
Precipitation  
Precipitation 0.09 in - - ()
Sea Level Pressure  
Sea Level Pressure 29.70 in    
Wind  
Wind Speed 18 mph (WSW)    
Max Wind Speed 32 mph    
Max Gust Speed 39 mph    
Visibility 4 miles    
Events Snow    
Averages and records for this station are not official NWS values.
T = Trace of Precipitation, MM = Missing Value Source: NWS Daily Summary

Daily Weather History Graph

Daily Weather History Graph

Search for Another Location

Airport or City:

Trip Planner

Search our weather history database for the weather conditions in past years. The results will help you decide how hot, cold, wet, or windy it might be!

Date:

Astronomy

Mar. 18, 2013 Rise Set
Actual Time 7:22 AM CDT 7:26 PM CDT
Civil Twilight 6:53 AM CDT 7:55 PM CDT
Nautical Twilight 6:19 AM CDT 8:30 PM CDT
Astronomical Twilight 5:44 AM CDT 9:04 PM CDT
Moon 11:08 AM CDT (3/18) 1:40 AM CDT (3/18)
Length of Visible Light 13h 02m
Length of Day
12h 03m
Waxing Crescent, 41% of the Moon is Illuminated
Mar 18
Waxing Crescent
Mar 19
First Quarter
Mar 27
Full
Apr 2
Last Quarter
Apr 10
New

Hourly Weather History & Observations

Time (CDT) Temp. Windchill Dew Point Humidity Pressure Visibility Wind Dir Wind Speed Gust Speed Precip Events Conditions
12:14 AM 28.4 °F 18.0 °F 23.5 °F 82% 29.79 in 10.0 mi SE 12.7 mph - N/A   Overcast
12:34 AM 28.8 °F 17.9 °F 23.9 °F 82% 29.77 in 10.0 mi SE 13.8 mph - N/A   Overcast
12:54 AM 28.9 °F 16.1 °F 23.9 °F 81% 29.73 in 10.0 mi SE 19.6 mph 26.5 mph N/A   Overcast
1:14 AM 29.3 °F 17.0 °F 24.3 °F 81% 29.72 in 10.0 mi SE 18.4 mph 27.6 mph N/A   Overcast
1:35 AM 29.3 °F 17.0 °F 24.6 °F 83% 29.71 in 10.0 mi SE 18.4 mph 24.2 mph N/A   Overcast
1:54 AM 29.3 °F 17.3 °F 24.8 °F 83% 29.70 in 10.0 mi SE 17.3 mph 25.3 mph N/A   Overcast
2:14 AM 29.7 °F 17.1 °F 24.8 °F 82% 29.69 in 7.0 mi SE 19.6 mph 24.2 mph N/A   Overcast
2:34 AM 29.8 °F 18.0 °F 25.3 °F 83% 29.68 in 10.0 mi SE 17.3 mph 23.0 mph N/A   Overcast
2:54 AM 30.0 °F 19.1 °F 25.3 °F 83% 29.69 in 10.0 mi SE 15.0 mph 20.7 mph N/A   Overcast
3:14 AM 30.0 °F 20.0 °F 25.9 °F 85% 29.69 in 2.5 mi SSE 12.7 mph 19.6 mph N/A Snow Light Snow
3:34 AM 29.3 °F 20.2 °F 27.1 °F 92% 29.68 in 0.5 mi SSE 10.4 mph 18.4 mph N/A Snow Heavy Snow
3:54 AM 29.1 °F 18.9 °F 27.9 °F 95% 29.67 in 0.5 mi SSE 12.7 mph 16.1 mph N/A Snow Heavy Snow
4:15 AM 29.3 °F 20.2 °F 28.0 °F 95% 29.66 in 1.0 mi SSE 10.4 mph 16.1 mph N/A Snow Snow
4:34 AM 29.3 °F 19.1 °F 28.2 °F 96% 29.65 in 1.5 mi SSE 12.7 mph 17.3 mph N/A Snow Light Snow
4:54 AM 29.5 °F 19.3 °F 28.2 °F 95% 29.65 in 2.0 mi SSE 12.7 mph 18.4 mph N/A Snow Light Snow
5:14 AM 30.0 °F 19.5 °F 28.4 °F 94% 29.63 in 3.0 mi SSE 13.8 mph 19.6 mph 0.03 in   Overcast
5:34 AM 30.0 °F 21.7 °F 28.4 °F 94% 29.63 in 2.0 mi SSE 9.2 mph 18.4 mph 0.04 in   Overcast
5:54 AM 30.2 °F 21.3 °F 28.4 °F 93% 29.62 in 3.0 mi SSE 10.4 mph 18.4 mph 0.06 in   Overcast
6:14 AM 30.6 °F 19.8 °F 28.9 °F 94% 29.60 in 2.5 mi SSE 15.0 mph 20.7 mph 0.01 in   Overcast
6:34 AM 30.6 °F 22.4 °F 29.1 °F 94% 29.60 in 3.0 mi South 9.2 mph 19.6 mph 0.02 in   Overcast
6:54 AM 30.7 °F 20.0 °F 29.1 °F 94% 29.59 in 3.0 mi SSE 15.0 mph 18.4 mph 0.02 in   Overcast
7:14 AM 30.7 °F 22.0 °F 29.1 °F 94% 29.59 in 5.0 mi South 10.4 mph 18.4 mph N/A   Overcast
7:34 AM 30.9 °F 21.2 °F 29.3 °F 94% 29.59 in 5.0 mi South 12.7 mph 18.4 mph 0.01 in   Overcast
7:54 AM 29.3 °F 16.6 °F 27.0 °F 91% 29.61 in 4.0 mi West 19.6 mph 25.3 mph 0.01 in   Overcast
8:14 AM 26.6 °F 13.8 °F 23.7 °F 89% 29.61 in 2.5 mi West 17.3 mph 28.8 mph N/A   Overcast
8:34 AM 25.0 °F 10.2 °F 22.3 °F 89% 29.62 in 3.0 mi West 21.9 mph 27.6 mph N/A   Overcast
8:54 AM 22.6 °F 9.2 °F 19.0 °F 86% 29.62 in 4.0 mi West 16.1 mph 25.3 mph N/A   Overcast
9:14 AM 22.1 °F 10.6 °F 17.4 °F 82% 29.63 in 10.0 mi West 11.5 mph 23.0 mph N/A   Overcast
9:34 AM 21.0 °F 7.6 °F 16.3 °F 82% 29.63 in 10.0 mi West 15.0 mph 25.3 mph N/A   Overcast
9:54 AM 19.8 °F 2.9 °F 14.2 °F 79% 29.64 in 5.0 mi West 23.0 mph 31.1 mph N/A   Haze
10:14 AM 19.4 °F 4.1 °F 14.0 °F 80% 29.64 in 7.0 mi West 18.4 mph 27.6 mph N/A   Overcast
10:34 AM 18.5 °F 1.6 °F 13.1 °F 79% 29.65 in 5.0 mi West 21.9 mph 31.1 mph N/A   Haze
10:54 AM 18.5 °F 0.2 °F 12.9 °F 79% 29.66 in 5.0 mi West 26.5 mph 34.5 mph N/A   Haze
11:14 AM 18.5 °F 1.3 °F 12.4 °F 77% 29.67 in 2.5 mi West 23.0 mph 32.2 mph N/A Snow Light Snow
11:34 AM 18.1 °F 0.8 °F 11.1 °F 74% 29.67 in 3.0 mi West 23.0 mph 31.1 mph N/A Snow Light Snow
11:54 AM 18.3 °F -0.0 °F 10.9 °F 73% 29.68 in 2.5 mi West 26.5 mph 33.4 mph N/A   Haze
12:14 PM 18.1 °F 2.0 °F 11.3 °F 75% 29.68 in 2.5 mi West 19.6 mph 33.4 mph N/A Snow Light Snow
12:34 PM 17.2 °F 0.8 °F 11.8 °F 79% 29.69 in 1.2 mi West 19.6 mph 31.1 mph N/A Snow Light Snow
12:54 PM 16.5 °F -0.6 °F 10.0 °F 76% 29.69 in 2.5 mi West 20.7 mph 34.5 mph N/A   Haze
1:14 PM 16.5 °F -1.0 °F 10.4 °F 77% 29.69 in 1.8 mi West 21.9 mph 32.2 mph N/A Snow Light Snow
1:34 PM 16.7 °F -1.8 °F 10.2 °F 76% 29.69 in 2.0 mi West 25.3 mph 32.2 mph N/A Snow Light Snow
1:54 PM 16.5 °F -1.4 °F 9.7 °F 74% 29.69 in 2.0 mi West 23.0 mph 29.9 mph N/A Snow Light Snow
2:14 PM 16.9 °F -1.6 °F 10.2 °F 75% 29.69 in 2.0 mi West 25.3 mph 33.4 mph N/A Snow Light Snow
2:34 PM 17.1 °F 0.6 °F 10.9 °F 77% 29.70 in 1.8 mi West 19.6 mph 32.2 mph N/A Snow Light Snow
2:54 PM 16.3 °F -1.6 °F 10.4 °F 77% 29.69 in 1.5 mi West 23.0 mph 33.4 mph N/A Snow Light Snow
3:14 PM 17.2 °F -1.1 °F 10.8 °F 76% 29.70 in 2.0 mi West 25.3 mph 36.8 mph N/A Snow Light Snow
3:34 PM 17.6 °F -1.0 °F 10.6 °F 74% 29.69 in 1.0 mi West 26.5 mph 39.1 mph N/A Snow Light Snow
3:54 PM 17.2 °F -0.8 °F 10.6 °F 75% 29.70 in 1.5 mi West 24.2 mph 36.8 mph N/A   Haze
4:14 PM 16.5 °F -4.0 °F 10.4 °F 77% 29.71 in 0.8 mi West 32.2 mph 35.7 mph N/A Snow Light Snow
4:34 PM 15.8 °F -3.4 °F 10.6 °F 80% 29.71 in 0.8 mi West 26.5 mph 35.7 mph N/A Snow Light Snow
4:54 PM 15.6 °F -3.3 °F 11.1 °F 82% 29.72 in 1.2 mi West 25.3 mph 34.5 mph N/A Snow Light Snow
5:14 PM 16.3 °F -1.2 °F 9.9 °F 76% 29.72 in 2.5 mi West 21.9 mph 31.1 mph N/A   Haze
5:34 PM 16.2 °F -2.6 °F 10.6 °F 79% 29.73 in 1.8 mi West 25.3 mph 34.5 mph N/A   Haze
5:54 PM 15.3 °F -4.5 °F 10.2 °F 80% 29.74 in 1.2 mi West 27.6 mph 34.5 mph N/A Snow Light Snow
6:14 PM 14.9 °F -4.9 °F 10.2 °F 82% 29.74 in 2.0 mi West 27.6 mph 38.0 mph N/A Snow Light Snow
6:34 PM 14.5 °F -4.0 °F 10.2 °F 83% 29.75 in 2.0 mi West 23.0 mph 31.1 mph N/A Snow Light Snow
6:54 PM 14.0 °F -5.5 °F 9.3 °F 82% 29.76 in 2.0 mi West 25.3 mph 34.5 mph N/A   Haze
7:14 PM 13.8 °F -6.1 °F 9.5 °F 83% 29.77 in 3.0 mi West 26.5 mph 33.4 mph N/A Snow Light Snow
7:34 PM 13.3 °F -7.1 °F 9.1 °F 84% 29.77 in 2.5 mi West 27.6 mph 33.4 mph N/A   Overcast
7:54 PM 13.1 °F -7.0 °F 8.6 °F 82% 29.78 in 4.0 mi West 26.5 mph 34.5 mph N/A   Overcast
8:14 PM 12.7 °F -7.5 °F 8.6 °F 84% 29.79 in 2.5 mi West 26.5 mph 33.4 mph N/A Snow Light Snow
8:34 PM 12.2 °F -7.1 °F 8.6 °F 85% 29.80 in 2.0 mi West 23.0 mph 32.2 mph N/A Snow Light Snow
8:54 PM 12.2 °F -7.1 °F 8.2 °F 84% 29.81 in 4.0 mi West 23.0 mph 33.4 mph N/A   Overcast
9:14 PM 12.2 °F -7.5 °F 8.1 °F 83% 29.82 in 3.0 mi West 24.2 mph 33.4 mph N/A   Overcast
9:34 PM 12.2 °F -6.7 °F 8.2 °F 84% 29.82 in 3.0 mi West 21.9 mph 33.4 mph N/A Snow Light Snow
9:55 PM 12.0 °F -7.3 °F 7.5 °F 82% 29.83 in 5.0 mi West 23.0 mph 31.1 mph N/A   Haze
10:14 PM 11.3 °F -8.7 °F 6.8 °F 82% 29.84 in 4.0 mi West 24.2 mph 32.2 mph N/A   Overcast
10:55 PM 10.8 °F -9.0 °F 6.4 °F 83% 29.85 in 5.0 mi West 23.0 mph 31.1 mph N/A   Haze
11:14 PM 10.4 °F -9.5 °F 5.9 °F 82% 29.85 in 4.0 mi West 23.0 mph 29.9 mph N/A   Overcast
11:34 PM 10.0 °F -10.0 °F 5.4 °F 81% 29.86 in 7.0 mi West 23.0 mph 29.9 mph N/A   Overcast
11:55 PM 9.5 °F -10.7 °F 4.8 °F 81% 29.86 in 7.0 mi West 23.0 mph 28.8 mph N/A   Overcast